Taylor Fork

This weather station provides wind speed, gust or max wind speed, and wind direction at 9460 ft. near Pika Point above Sunlight Basin.  

This data can be used with temperature and precipitation data from the Carrot Basin SNOTEL site. If the data below is not displayed or up to date, view data here.

Elevation
9460ft
Jump to table bottom
Date Time Temperature
deg F
RH, % Wind Speed Wind Gust Wind Direction
03/01/24 02:00 21.1 97 29 56 SW - 231
03/01/24 01:00 21.9 97 29 70 SW - 232
03/01/24 00:00 22.2 98 30 64 SW - 233
02/29/24 23:00 22.4 98 32 55 SW - 239
02/29/24 22:00 22.8 98 34 59 SW - 228
02/29/24 21:00 21.9 97 29 54 SW - 212
02/29/24 20:00 20.4 97 25 45 S - 190
02/29/24 19:00 20.2 97 21 38 S - 172
02/29/24 18:00 20.0 97 19 34 S - 174
02/29/24 17:00 20.4 97 22 46 S - 200
02/29/24 16:00 21.0 97 22 40 SW - 229
02/29/24 15:00 20.7 97 24 43 SW - 231
02/29/24 14:00 20.8 96 21 37 SW - 210
02/29/24 13:00 19.5 96 19 38 S - 198
02/29/24 12:00 18.6 96 21 33 S - 200
02/29/24 11:00 18.4 96 19 30 SW - 203
02/29/24 10:00 17.7 96 18 31 SW - 214
02/29/24 09:00 17.8 95 16 27 SW - 221
02/29/24 08:00 15.7 95 19 32 SW - 219
02/29/24 07:00 15.1 95 21 27 SW - 210
02/29/24 06:00 14.3 95 23 31 SW - 207
02/29/24 05:00 14.0 94 21 28 SW - 210
02/29/24 04:00 12.9 94 20 26 S - 195
02/29/24 03:00 13.3 94 20 30 S - 201
02/29/24 02:00 13.5 94 21 30 SW - 207
02/29/24 01:00 12.4 94 17 25 S - 200
02/29/24 00:00 12.4 94 22 35 SW - 204
02/28/24 23:00 12.1 94 25 36 SW - 204
02/28/24 22:00 12.1 94 23 36 SW - 208
02/28/24 21:00 12.4 94 21 30 SW - 211
02/28/24 20:00 12.4 94 17 26 SW - 218
02/28/24 19:00 12.2 94 20 30 SW - 207
02/28/24 18:00 11.8 93 22 34 S - 200
02/28/24 17:00 11.2 93 22 31 SW - 205
02/28/24 16:00 10.8 93 20 28 SW - 207
02/28/24 15:00 11.0 92 21 31 S - 194
02/28/24 14:00 10.2 92 22 35 S - 195
02/28/24 13:00 10.1 91 26 37 S - 194
02/28/24 12:00 11.3 91 25 37 SW - 203
02/28/24 11:00 9.6 91 25 38 SW - 205
02/28/24 10:00 10.4 91 21 37 SW - 211
02/28/24 09:00 7.5 91 23 36 SW - 205
02/28/24 08:00 4.7 91 20 28 SW - 203
02/28/24 07:00 3.9 91 21 28 SW - 205
02/28/24 06:00 2.5 90 17 24 SW - 210
02/28/24 05:00 2.7 90 18 27 SW - 212
02/28/24 04:00 1.9 90 16 31 SW - 222
02/28/24 03:00 2.5 90 16 29 SW - 243
02/28/24 02:00 0.7 90 19 31 SW - 236
02/28/24 01:00 1.3 89 20 30 SW - 239